Hourly Data Report for October 08, 2014

All times are specified in Local Standard Time (LST). Add 1 hour to adjust for Daylight Saving Time where and when it is observed.

RANKIN INLET A
NUNAVUT

62°48'38.000" N
92°06'53.000" W
32.30 m
2303405
71083
YRT

Download Data

Hourly Data (October 2014)
Hourly Data Report for October 8, 2014
Temp Definition
°C
Dew Point Temp Definition
°C
Rel Hum Definition
%
Wind Dir Definition
10's deg

Wind Spd Definition
km/h
Visibility Definition
km
Stn Press Definition
kPa
Hmdx Definition


Wind Chill Definition


Weather Definition


TIME
00:00 Legend Double Dagger 0.5 -0.1 96 4 25 24.1 101.41     Cloudy
01:00 Legend Double Dagger 0.0 -0.4 97 4 21 8.1 101.41   -5 Fog
02:00 Legend Double Dagger 0.0 -0.4 97 3 26 4.8 101.41   -6 Fog
03:00 Legend Double Dagger 0.2 -0.2 97 2 21 3.2 101.38     Fog
04:00 Legend Double Dagger 0.4 -0.3 95 1 19 24.1 101.36     LegendNANA
05:00 Legend Double Dagger 0.3 -0.7 93 2 23 24.1 101.39     LegendNANA
06:00 Legend Double Dagger 0.3 -0.9 92 1 22 24.1 101.40     Cloudy
07:00 Legend Double Dagger 0.2 -0.4 96 1 20 24.1 101.38     LegendNANA
08:00 Legend Double Dagger 0.5 -0.4 94 1 24 16.1 101.37     LegendNANA
09:00 Legend Double Dagger 0.8 0.1 95 3 29 4.8 101.38     Fog
10:00 Legend Double Dagger 0.9 0.2 95 4 28 6.4 101.41     Fog
11:00 Legend Double Dagger 1.1 0.4 95 4 26 4.8 101.39     Fog
12:00 Legend Double Dagger 1.3 0.1 92 4 28 6.4 101.42     Drizzle,Snow Showers,Fog
13:00 Legend Double Dagger 1.4 0.2 92 4 25 9.7 101.44     Drizzle,Snow Showers,Fog
14:00 Legend Double Dagger 1.6 0.0 89 5 23 16.1 101.47     Drizzle
15:00 Legend Double Dagger 1.4 -0.2 89 5 29 16.1 101.52     Cloudy
16:00 Legend Double Dagger 1.0 -0.6 89 4 28 16.1 101.57     LegendNANA
17:00 Legend Double Dagger 0.8 -1.0 88 5 28 16.1 101.61     LegendNANA
18:00 Legend Double Dagger 0.4 -1.4 88 5 31 16.1 101.64     Cloudy
19:00 Legend Double Dagger 0.1 -2.0 86 6 26 19.3 101.68     LegendNANA
20:00 Legend Double Dagger -0.3 -2.4 86 6 24 16.1 101.71   -6 LegendNANA
21:00 Legend Double Dagger -0.6 -3.3 82 5 36 16.1 101.76   -8 Cloudy
22:00 Legend Double Dagger -0.8 -3.5 82 4 30 16.1 101.77   -8 LegendNANA
23:00 Legend Double Dagger -0.8 -3.2 84 2 26 16.1 101.79   -7 LegendNANA

Notes on Data Quality.

Legend

  • E = Estimated
  • M = Missing
  • NA = Not Available
  • ‡ = Partner data that is not subject to review by the National Climate Archives
Date modified: